Preview of NWS' New Version of Forecast
This preview is not operational and should not be used for support decisions.

Regional Weather Roundup (RWR)

Issued by National Weather Service (NWS)

                            
000
ASUS45 KBOU 220010
RWRCO 

WEATHER ROUNDUP FOR COLORADO
NATIONAL WEATHER SERVICE DENVER/BOULDER CO
600 PM MDT SUN APR 21 2019

NOTE: "FAIR" INDICATES FEW OR NO CLOUDS BELOW 12000 FEET WITH NO
SIGNIFICANT WEATHER AND/OR OBSTRUCTIONS TO VISIBILITY.

COZ001>005-013-030-031-220100-
...NORTHWEST COLORADO...
  
CITY           SKY/WX    TMP DP  RH WIND       PRES   REMARKS
CRAIG          CLOUDY    51  37  58 S3        29.97R                  
HAYDEN         CLOUDY    50  39  66 E8        30.00R                  
MEEKER         FAIR      52  38  58 NE8       29.95F                  
RANGELY        MOCLDY    55  42  60 NW21      29.94R                  
RABBIT EARS PA FAIR      37  30  75 NW6       30.12R                  
STEAMBOAT SPGS FAIR      52  34  50 CALM      29.98R                  
WALDEN         CLOUDY    43  36  75 E14       30.04R                  
$$

COZ006>008-011-220100-
...WEST CENTRAL VALLEYS...
  
CITY           SKY/WX    TMP DP  RH WIND       PRES   REMARKS
GRAND JUNCTION FAIR      63  42  46 NE9       29.84F                  
MONTROSE       FAIR      67  31  26 N8G21     29.89R                  
EAGLE          LGT RAIN  50  36  58 W17G29    30.00R                  
RIFLE          FAIR      53  42  66 S8        29.94R                  
DELTA          FAIR      69  36  30 W9        29.85S                  
NUCLA          FAIR      68  10  10 S20G26    29.91S                  
$$

COZ017>023-064>068-220100-
...SOUTHWEST COLORADO...
  
CITY           SKY/WX    TMP DP  RH WIND       PRES   REMARKS
DURANGO        FAIR      64  18  17 W15G25    29.95S                  
CORTEZ         FAIR      69  19  15 SW10G22   29.90F                  
PAGOSA SPRINGS PTSUNNY   62  15  16 SW16G25   30.01S                  
TELLURIDE      FAIR      52  12  20 SW8       30.06R                  
WOLF CREEK PAS PTSUNNY   34  12  40 S16G25    30.23R WCI  23          
$$

COZ009-010-012-014-032>034-037-058>063-220100-
...CENTRAL COLORADO...
  
CITY           SKY/WX    TMP DP  RH WIND       PRES   REMARKS
ASPEN          FAIR      53  24  32 NW13G18   29.98S                  
BUENA VISTA    FAIR      56  18  22 N3        29.99S                  
COPPER MTN     FAIR      37  23  56 W5        30.16R                  
BERTHOUD PASS  PTSUNNY   27  18  69 W20       30.15R WCI  13          
COTTONWOOD PAS FAIR      50  18  27 CALM      30.07R                  
GUNNISON       FAIR      55  26  32 NE8       29.99R                  
GRANBY         MOCLDY    45  32  59 NE5       30.06R                  
KREMMLING      FAIR      54  30  40 CALM      30.00S                  
LEADVILLE      FAIR      43  17  35 W6G18     30.07R                  
MONARCH PASS   PTSUNNY   36  21  55 W20G28    30.26R                  
SALIDA         FAIR      62  19  19 NW5       30.04R                  
SUNLIGHT       PTSUNNY   32  27  80 SW7       30.14S WCI  26          
WILKERSON PASS CLOUDY    41  14  33 SW13G22   30.15R                  
$$

COZ069>075-220100-
...SAN LUIS VALLEY/SANGRE DE CRISTO MOUNTAINS...
  
CITY           SKY/WX    TMP DP  RH WIND       PRES   REMARKS
ALAMOSA        FAIR      62   6  11 W21G31    29.98R                  
DEL NORTE      FAIR      60  13  16 SW23      30.00R                  
LA VETA PASS   NOT AVBL                                               
SAGUACHE       PTSUNNY   61  19  20 CALM      29.98R                  
$$

COZ035-036-038>040-220100-
...NORTHERN COLORADO FRONT RANGE...
  
CITY           SKY/WX    TMP DP  RH WIND       PRES   REMARKS
DENVER INTL AP PTSUNNY   52  44  74 NW16      29.95F                  
AURORA         MOSUNNY   54  42  65 N12       29.96R                  
FRONT RANGE AP PTSUNNY   54  45  71 NW13      29.96R                  
ERIE MUNI ARPT CLOUDY    49  45  83 N9        30.01R                  
BOULDER MUN AP PTSUNNY   46  46 100 CALM      29.95R                  
CENTENNIAL     PTSUNNY   56  39  53 N16G25    29.96R                  
BROOMFIELD     PTSUNNY   50  45  81 N7        29.97S                  
FORT COLLINS   RAIN      48  45  89 W9        30.00R                  
LONGMONT       LGT RAIN  51  46  83 N17       29.97F                  
$$

COZ041-046-047-076>085-087-088-220100-
...PIKES PEAK/PALMER DIVIDE AND SOUTHERN FOOTHILLS...
  
CITY           SKY/WX    TMP DP  RH WIND       PRES   REMARKS
COLO. SPRINGS  PTSUNNY   62  32  32 N18G25    29.91R                  
A. F. ACADEMY  FAIR      57  37  47 NW23G35   29.90R                  
SCHRIEVER AFB  NOT AVBL                                               
CHEYENNE MTN   PTSUNNY   56  33  41 N9        29.88R                  
ELLICOTT         N/A    N/A N/A N/A NE28G37   29.90R                  
FALCON         CLOUDY    57  33  39 N20G29    29.95R                  
FORT CARSON    FAIR      65  33  30 N17       29.88R                  
LIMON          FAIR      49  43  80 N22G29    29.89R                  
MONUMENT HILL  FAIR      50  36  57 N22G33    30.00R                  
CANON CITY     FAIR      72  23  16 W16G25    29.83R                  
WALSENBURG     NOT AVBL                                               
TRINIDAD       FAIR      73  17  12 W17G30    29.86R                  
$$

COZ042>045-048>051-090-091-220100-
...NORTHEAST COLORADO...
  
CITY           SKY/WX    TMP DP  RH WIND       PRES   REMARKS
GREELEY ARPT   HVY RAIN  48  46  93 S9G18     30.01                   
AKRON          PTSUNNY   54  46  74 N21       29.94R                  
BURLINGTON     RAIN      54  47  77 NW26G45   29.88R                  
WRAY           CLOUDY    61  45  55 NW21G26   29.88R                  
YUMA           NOT AVBL                                               
STERLING       CLOUDY    54  45  71 N15G24    29.93R                  
HOLYOKE        CLOUDY    59  46  63 NW23G29   29.89R                  
FORT MORGAN    NOT AVBL                                               
$$

COZ086-089-092>099-220100-
...SOUTHEAST COLORADO...
  
CITY           SKY/WX    TMP DP  RH WIND       PRES   REMARKS
PUEBLO         FAIR      73  30  20 NE17      29.79R                  
LA JUNTA       FAIR      79  27  14 N10       29.77R                  
LAMAR          FAIR      67  42  40 NE26G41   29.76R                  
SPRINGFIELD      N/A     76  26  15 VRB5      29.76R                  
$$